User: anonymous   Login
Location: Pella
(41.4080°N, 92.9160°W)
Time: 22:06:04
(UTC-06:00)
Language:

Iridium 91 - Orbit

View from above orbital plane
View from above orbital plane
View from above satellite
View from above satellite

Ground track
Ground track

The orbit data is extracted from the following two-line orbital elements,

1 27372U 02005A   15031.53230100  .00000416  00000-0  14138-3 0  6653
2 27372 086.3981 290.3844 0002078 119.2466 325.8674 14.34217220687264
Epoch (UTC): 31 January 2015 12:46:30
Eccentricity: 0.0002078
inclination: 86.3981°
perigee height: 776 km
apogee height: 779 km
right ascension of ascending node: 290.3844°
argument of perigee: 119.2466°
revolutions per day: 14.34217220
mean anomaly at epoch: 325.8674°
orbit number at epoch: 68726

The dashed part of the orbit path shows where the satellite is in the earth's shadow,  

DLR